User: anonymous   Login
Location: Lawrence Hall of Science
(37.8785°N, 122.2415°W)
Time: 10:21:41
(UTC-07:00)
Language:

Cosmos 2098 Rocket - Orbit

View from above orbital plane
View from above orbital plane
View from above satellite
View from above satellite

Ground track
Ground track

The orbit data is extracted from the following two-line orbital elements,

1 20775U 90078B   17294.52282164  .00003152  00000-0  15814-3 0  9991
2 20775  82.9260 304.5954 0584748 313.0250  42.3324 14.31337438366831
Epoch (UTC): 21 October 2017 12:32:51
Eccentricity: 0.0584748
inclination: 82.9260°
perigee height: 368 km
apogee height: 1206 km
right ascension of ascending node: 304.5954°
argument of perigee: 313.0250°
revolutions per day: 14.31337438
mean anomaly at epoch: 42.3324°
orbit number at epoch: 36683

The dashed part of the orbit path shows where the satellite is in the earth's shadow,  

DLR